Showing default

FRONTIERSAT, 69015

Orbit data source: Space-Track

FRONTIERSAT, 69015 is a payload satellite owned by Calgary (CA) in SSO that was launched on Sun, 03 May 2026 UTC via an FALCON 9 launch vehicle from the Air Force Western Test Range (AFWTR). Payload-class satellites include a variety of spacecraft equipped with specific instruments for various scientific and technological missions. These include communications satellites like Starlink; space stations such as the ISS; scientific satellites like the Hubble; Earth observation satellites from companies like Planet Labs, Umbra, and HawkEye 360; GPS; miniature CubeSats for education and research; and military/defense satellites.

Loading next visibility...
Identifier
69015, 2026-100AM
Orbit
SSO
Country
Flag of CACA
Related business
Manufacturer
Calgary
Mission
Operational Amateur Technology
Bus & Motor
CUBESAT 3U, Unknown motor
Mass
~5 kg wet, ~5 kg dry
Launch date (UTC)
2026-05-03 (5 months ago)
Launch vehicle
FALCON 9
Launch site
Air Force Western Test Range (AFWTR)
Object type
Payload
Rocket body
Debris
Shape & HBR
Box, 0.2 m
Radar Cross Section
0.035 m², Medium (>0.1 m² and < 1m²)

Expand to show TLE details & history
Last TLE update: 2 days ago

TLE from 2 days ago
0 FRONTIERSAT
1 69015U 26100AM  26264.94413376  .00005733  00000-0  24648-3 0  9992
2 69015  97.3862 161.2230 0009834  68.4985 291.7299 15.22999254 21546
Epoch: 2026-09-21T22:39Z
TLE epoch observation values (Epoch: 2026-09-21T22:39:33.156Z)
Latitude
-0.00008°
Longitude
-179.48184°
Altitude
497.397 km
Speed
7.617 km/s
True Right ascension
10h 44m 53s
True Declination
0° 00' 00"
Sunlit
Object was in daylight at epoch
Visualization orbit readout
Latitude
Unknown
Longitude
Unknown
Altitude
Unknown
Speed
Unknown
Apparent Right ascension
Unknown
Apparent Declination
Unknown
Sunlit
N/A
Visualization observer readout
Local Sidereal Time
07:32:41
Azimuth
Unknown
Elevation
Unknown
Doppler factor
Unknown
Orbital elements
Apogee altitude
500.519 km
Perigee altitude
487.003 km
Semi-major axis
6,871.898 km
Eccentricity
0.00098
Inclination
97.3862°
RAAN
161.223°
Arg. of periapsis
68.4985°
True anomaly
291.62517°
Mean anomaly
291.7299°
Eccentric anomaly
291.67754°
Mean motion
3.81003 °/min
Orbital period
94.49 mins
BSTAR
0.00024648
Loading maneuver chart data...
Computing Atmospheric mass density...
Loading historical data...
Loading historical data...
Loading historical data...
Loading historical data...
Loading historical data...
Loading historical data...
Loading historical data...

Documentation

Showing up to 5 results
|